Location: Huntsville
(41.2590°N, 111.7678°W)
Time: 03:14:16
(UTC+00:00)

Courier 1B Rocket - Pass Details

Date: 17 June 2021
Orbit: 920 x 1202 km, 28.2° (Epoch: 30 July)

Event Time Altitude Azimuth Distance (km) Brightness Sun altitude
Rises 02:47:38 0° 219° (SW) 3,730 8.2 1.5°
Reaches altitude 10° 02:51:27 10° 199° (SSW) 2,727 7.2 0.9°
Maximum altitude 02:55:18 16° 163° (SSE) 2,256 6.5 0.3°
Drops below altitude 10° 02:59:02 10° 126° (SE) 2,644 6.6 -0.3°
Sets 03:02:39 0° 106° (ESE) 3,563 7.3 -0.9°
